Home   Weather   Huntington Beach   Past weeks

Flag for USA Past Weather in Huntington Beach, California, USA — Yesterday and Last 2 Weeks

Now
51 °F

Passing clouds.


Feels Like: 51 °F
Forecast: 41 / 58 °F
Wind: No wind

Location: John Wayne Airport-Orange County Airport

Current Time: Feb 23, 2017 at 10:28:27 pm

Latest Report: Feb 23, 2017 at 9:53 pm


Visibility: 10 mi

Pressure: 30.09 "Hg

Humidity: 66%

Dew Point: 40 °F

Location of Huntington BeachLocation

Past Weather in Huntington Beach — Graph

°F

Huntington Beach Temperature Yesterday

Maximum temperature yesterday: 62 °F (at 12:53 pm)
Minimum temperature yesterday: 54 °F (at 11:53 pm)
Average temperature yesterday: 58 °F

High & Low Weather Summary for the Past Weeks

 TemperatureHumidityPressure
High75 °F (Feb 12, 2:53 pm)100% (Feb 8, 11:53 pm)30.34 "Hg (Feb 8, 11:53 pm)
Low48 °F (Feb 23, 4:53 am)22% (Feb 23, 12:53 pm)29.47 "Hg (Feb 17, 3:53 pm)
Average58 °F82%30.02 "Hg
* Reported Feb 8 8:53 pm — Feb 23 8:53 pm, Huntington Beach, Weather by CustomWeather, © 2017

Note: Actual official high and low records may vary slightly from our data, if they occured in-between our weather recording intervals... More about our weather records

Advertising

Huntington Beach Weather History for the Previous 24 Hours

Scroll right to see more
 ConditionsComfort  
Time TempWeatherWind HumidityBarometerVisibility
8:53 pm
Thu, Feb 23
53 °FClear.3 mph64%30.09 "Hg10 mi
7:53 pm55 °FClear.3 mph51%30.08 "Hg10 mi
6:53 pm55 °FClear.5 mph47%30.06 "Hg10 mi
5:53 pm57 °FClear.3 mph41%30.05 "Hg10 mi
4:53 pm57 °FPassing clouds.8 mph44%30.03 "Hg10 mi
3:53 pm58 °FPassing clouds.14 mph41%30.03 "Hg10 mi
2:53 pm58 °FPassing clouds.15 mph41%30.03 "Hg10 mi
1:53 pm59 °FPassing clouds.14 mph36%30.02 "Hg10 mi
12:53 pm61 °FPassing clouds.7 mph22%30.03 "Hg10 mi
11:53 am59 °FPassing clouds.7 mph25%30.06 "Hg10 mi
10:53 am58 °FPassing clouds.8 mph28%30.08 "Hg10 mi
9:53 am57 °FSunny.7 mph31%30.09 "Hg10 mi
8:53 am54 °FPassing clouds.3 mph41%30.09 "Hg10 mi
7:53 am51 °FPassing clouds.3 mph48%30.09 "Hg10 mi
6:53 am50 °FPassing clouds.6 mph50%30.07 "Hg10 mi
5:53 am49 °FClear.No wind55%30.05 "Hg10 mi
4:53 am48 °FClear.No wind59%30.04 "Hg10 mi
3:53 am51 °FClear.No wind48%30.03 "Hg10 mi
2:53 am51 °FClear.3 mph48%30.03 "Hg10 mi
1:53 am53 °FClear.6 mph45%30.05 "Hg10 mi
12:53 am53 °FClear.5 mph48%30.05 "Hg10 mi
11:53 pm
Wed, Feb 22
54 °FClear.3 mph59%30.05 "Hg10 mi
10:53 pm55 °FClear.No wind77%30.05 "Hg10 mi
Weather by CustomWeather, © 2017

See weather overviewHow to use our weather pages